User: anonymous   Login
Location: Unspecified
(0.0000°N, 0.0000°E)
Time: 14:50:24
(UTC+00:00)
Language:

UWE-3 - Orbit

View from above orbital plane
View from above orbital plane
View from above satellite
View from above satellite

Ground track
Ground track

The orbit data is extracted from the following two-line orbital elements,

1 39446U 13066AG  17206.06032875 +.00000178 +00000-0 +30455-4 0  9996
2 39446 097.6256 240.6066 0071017 160.9374 199.4521 14.78002798196792
Epoch (UTC): 25 July 2017 01:26:52
Eccentricity: 0.0071017
inclination: 97.6256°
perigee height: 586 km
apogee height: 685 km
right ascension of ascending node: 240.6066°
argument of perigee: 160.9374°
revolutions per day: 14.78002798
mean anomaly at epoch: 199.4521°
orbit number at epoch: 19679

The dashed part of the orbit path shows where the satellite is in the earth's shadow,  

DLR